Regional Weather Roundup
Issued by NWS

Home | Current Version | Previous Version | Graphics & Text | Print | Product List | Glossary On
Versions: 1 2 3 4 5 6 7 8 9 10 11 12 13 14 15 16 17 18 19 20 21 22 23 24 25 26 27 28 29 30 31 32 33 34 35 36 37 38 39 40 41 42 43 44 45 46 47 48 49 50
000
ASUS45 KABQ 292301
RWRNM
NEW MEXICO REGIONAL WEATHER ROUNDUP
NATIONAL WEATHER SERVICE ALBUQUERQUE NM
500 PM MDT FRI APR 29 2016

NOTE: "FAIR" MEANS FEW OR NO CLOUDS BELOW 12,000 FEET AGL WITH NO
       SIGNIFICANT WEATHER OR OBSTRUCTIONS TO VISION.

      THIS PRODUCT IS RELEASED AS TWO VERSIONS.  ONE VERSION NEAR
      THE TOP OF THE HOUR CONTAINING PRELIMINARY DATA FROM ALBUQUERQUE
      AND OTHER STATIONS.  A FINAL VERSION WITH ADDITIONAL DATA IS
      ISSUED ABOUT 10 MINUTES AFTER THE HOUR.

NMZ501-503-504-510>518-300000-
NORTHWEST PLATEAU/NORTHCENTRAL MOUNTAINS

CITY           SKY/WX    TMP DP  RH WIND       PRES   REMARKS
FARMINGTON     PTSUNNY   58  27  30 NW18G24   29.75F
SANTA FE       PTSUNNY   48  31  51 N20G30    29.79S
TAOS           FAIR      45  28  53 SW16      29.81S
ANGEL FIRE     CLOUDY    37  29  74 SW9G17    29.82S WCI  30

$$
NMZ402-403-502-505>509-300000-
WESTCENTRAL MOUNTAINS/SOUTHWEST MOUNTAINS

CITY           SKY/WX    TMP DP  RH WIND       PRES   REMARKS
GALLUP         LGT RAIN  44  37  76 N23G31    29.85S
GRANTS         LGT RAIN  44  40  83 N14       29.85S
SILVER CITY      N/A     63  27  25 W22G32    29.91S

$$
NMZ407-409-411-412-300000-
SOUTHERN DESERTS

CITY           SKY/WX    TMP DP  RH WIND       PRES   REMARKS
LORDSBURG      PTSUNNY   66  30  26 W16G23    29.87S
DEMING         FAIR      67  29  24 W21G33    29.84F
HOLLOMAN AFB   FAIR      71  21  15 SW10      29.75F
ALAMOGORDO     FAIR      72  19  14 S12       29.77F
T OR C         FAIR      69  23  17 W17G28    29.77F

$$
NMZ519>523-300000-
CENTRAL VALLEYS/CENTRAL HIGHLANDS

CITY           SKY/WX    TMP DP  RH WIND       PRES   REMARKS
ALBUQUERQUE    LGT RAIN  52  36  54 N14G26    29.79S
DOUBLE EAGLE   LGT RAIN  50  37  62 W7        29.81S
CLINES CORNERS FAIR      50  26  39 W20G29    29.80F
BELEN          PTSUNNY   62  27  26 W17       29.80F
SOCORRO        NOT AVBL

$$
NMZ524>526-539-540-300000-
SOUTHCENTRAL MOUNTAINS

CITY           SKY/WX    TMP DP  RH WIND       PRES   REMARKS
RUIDOSO        NOT AVBL

$$
NMZ527>531-300000-
NORTHEAST HIGHLANDS/NORTHEAST PLAINS

CITY           SKY/WX    TMP DP  RH WIND       PRES   REMARKS
LAS VEGAS      FAIR      50  24  36 W24G30    29.78S
RATON          LGT RAIN  40  34  79 N8        29.78F WCI  34
CLAYTON        LGT RAIN  44  37  76 N13       29.80R

$$
NMZ532>537-300000-
EASTCENTRAL PLAINS

CITY           SKY/WX    TMP DP  RH WIND       PRES   REMARKS
TUCUMCARI      FAIR      61  39  44 N14G21    29.74S
CANNON AFB     NOT AVBL
CLOVIS AIRPORT PTSUNNY   64  37  36 NW9G16    29.74S

$$
NMZ028-029-538-300000-
SOUTHEAST PLAINS

CITY           SKY/WX    TMP DP  RH WIND       PRES   REMARKS
ROSWELL        FAIR      77  17  10 W17G25    29.69S
ARTESIA        FAIR      77  18  10 SW25G38   29.70R
CARLSBAD       FAIR      77  14   9 W33G40    29.71S
HOBBS          SUNNY     75  10   8 SW21G32   29.72S


$$



USA.gov is the U.S. government's official web portal to all federal, state and local government web resources and services.